TimeCST,TemperatureF,Dew PointF,Humidity,Sea Level PressureIn,VisibilityMPH,Wind Direction,Wind SpeedMPH,Gust SpeedMPH,PrecipitationIn,Events,Conditions,WindDirDegrees,DateUTC
12:15 AM,3.6,-0.4,84,30.34,10.0,West,4.6,-,N/A,Snow,Light Snow,280,2014-01-02 06:15:00
12:35 AM,5.9,2.1,84,30.34,10.0,NW,3.5,-,N/A,,Overcast,310,2014-01-02 06:35:00
12:55 AM,7.3,3.6,85,30.33,10.0,NW,3.5,-,N/A,,Overcast,310,2014-01-02 06:55:00
1:15 AM,11.3,7.7,85,30.32,10.0,NW,4.6,-,N/A,,Overcast,310,2014-01-02 07:15:00
1:35 AM,12.7,8.6,84,30.32,10.0,NW,6.9,-,N/A,,Overcast,320,2014-01-02 07:35:00
1:55 AM,13.5,8.6,81,30.32,10.0,NNW,9.2,-,N/A,,Overcast,330,2014-01-02 07:55:00
2:15 AM,13.6,8.4,80,30.32,10.0,NW,5.8,-,N/A,,Overcast,320,2014-01-02 08:15:00
2:35 AM,13.8,8.4,79,30.32,10.0,NNW,5.8,-,N/A,,Overcast,330,2014-01-02 08:35:00
2:55 AM,14.0,8.2,78,30.32,10.0,NW,3.5,-,N/A,,Overcast,320,2014-01-02 08:55:00
3:15 AM,14.4,8.2,77,30.33,10.0,NNW,5.8,-,N/A,,Overcast,330,2014-01-02 09:15:00
3:35 AM,14.0,7.7,76,30.32,10.0,NNW,4.6,-,N/A,,Overcast,340,2014-01-02 09:35:00
3:55 AM,14.0,7.5,75,30.32,10.0,North,3.5,-,N/A,,Overcast,350,2014-01-02 09:55:00
4:15 AM,14.0,7.7,76,30.31,10.0,Calm,Calm,-,N/A,,Overcast,0,2014-01-02 10:15:00
4:35 AM,13.8,7.5,76,30.30,10.0,Calm,Calm,-,N/A,,Overcast,0,2014-01-02 10:35:00
4:55 AM,13.8,7.5,76,30.30,10.0,Calm,Calm,-,N/A,,Overcast,0,2014-01-02 10:55:00
5:15 AM,14.0,8.1,77,30.30,10.0,NNE,3.5,-,N/A,,Overcast,30,2014-01-02 11:15:00
5:35 AM,14.0,7.7,76,30.31,10.0,Calm,Calm,-,N/A,,Overcast,0,2014-01-02 11:35:00
5:55 AM,14.0,7.7,76,30.31,10.0,NNE,5.8,-,N/A,,Overcast,30,2014-01-02 11:55:00
6:15 AM,14.0,7.5,75,30.31,10.0,NE,8.1,-,N/A,,Overcast,40,2014-01-02 12:15:00
6:35 AM,13.1,6.8,76,30.32,10.0,NE,3.5,-,N/A,,Overcast,50,2014-01-02 12:35:00
6:55 AM,13.1,6.1,74,30.32,10.0,NE,3.5,-,N/A,,Overcast,50,2014-01-02 12:55:00
7:15 AM,12.9,6.6,76,30.31,10.0,ESE,3.5,-,N/A,,Overcast,110,2014-01-02 13:15:00
7:35 AM,12.9,6.8,77,30.32,10.0,ENE,5.8,-,N/A,Snow,Light Snow,70,2014-01-02 13:35:00
7:55 AM,12.6,6.3,76,30.33,10.0,East,3.5,-,N/A,,Overcast,80,2014-01-02 13:55:00
8:15 AM,12.2,6.4,78,30.33,10.0,ENE,8.1,-,N/A,,Overcast,70,2014-01-02 14:15:00
8:35 AM,12.2,6.8,79,30.35,10.0,ENE,9.2,-,N/A,,Overcast,70,2014-01-02 14:35:00
8:55 AM,12.0,7.0,80,30.35,7.0,ENE,8.1,-,N/A,Snow,Light Snow,70,2014-01-02 14:55:00
9:15 AM,11.8,6.4,79,30.36,7.0,ENE,9.2,-,N/A,Snow,Light Snow,70,2014-01-02 15:15:00
9:35 AM,11.8,6.6,80,30.37,10.0,East,9.2,-,N/A,,Overcast,80,2014-01-02 15:35:00
9:55 AM,11.8,6.8,80,30.37,10.0,ENE,8.1,-,N/A,,Overcast,70,2014-01-02 15:55:00
10:15 AM,12.0,7.2,81,30.37,7.0,ENE,10.4,-,N/A,,Overcast,70,2014-01-02 16:15:00
10:35 AM,12.0,6.8,80,30.38,7.0,ENE,5.8,-,N/A,,Overcast,70,2014-01-02 16:35:00
10:55 AM,12.2,6.8,79,30.37,10.0,ENE,6.9,-,N/A,,Overcast,70,2014-01-02 16:55:00
11:15 AM,12.9,7.7,80,30.38,7.0,East,8.1,-,N/A,Snow,Light Snow,80,2014-01-02 17:15:00
11:35 AM,13.1,7.7,79,30.38,10.0,NE,4.6,-,N/A,,Overcast,50,2014-01-02 17:35:00
11:55 AM,13.5,7.9,78,30.37,7.0,ENE,6.9,-,N/A,Snow,Light Snow,70,2014-01-02 17:55:00
12:15 PM,13.6,7.7,77,30.38,10.0,ENE,8.1,-,N/A,,Overcast,70,2014-01-02 18:15:00
12:35 PM,13.8,7.5,76,30.37,10.0,East,6.9,-,N/A,,Overcast,80,2014-01-02 18:35:00
12:55 PM,14.2,7.9,76,30.37,10.0,ENE,6.9,-,N/A,,Overcast,60,2014-01-02 18:55:00
1:15 PM,13.8,7.3,75,30.35,10.0,NE,5.8,-,N/A,,Overcast,50,2014-01-02 19:15:00
1:35 PM,14.4,7.7,75,30.35,10.0,ENE,5.8,-,N/A,,Overcast,70,2014-01-02 19:35:00
1:55 PM,14.4,7.9,75,30.34,10.0,ENE,6.9,-,N/A,,Overcast,60,2014-01-02 19:55:00
2:15 PM,14.4,7.9,75,30.34,10.0,East,5.8,-,N/A,,Overcast,90,2014-01-02 20:15:00
2:35 PM,14.9,8.4,76,30.34,10.0,ESE,5.8,-,N/A,,Overcast,110,2014-01-02 20:35:00
2:55 PM,14.9,8.2,75,30.34,10.0,East,3.5,-,N/A,,Overcast,90,2014-01-02 20:55:00
3:15 PM,14.9,8.2,75,30.34,10.0,ESE,4.6,-,N/A,,Overcast,110,2014-01-02 21:15:00
3:35 PM,14.9,7.9,74,30.35,10.0,ENE,3.5,-,N/A,,Overcast,70,2014-01-02 21:35:00
3:55 PM,14.9,7.7,73,30.36,10.0,Calm,Calm,-,N/A,,Overcast,0,2014-01-02 21:55:00
4:15 PM,14.9,8.1,74,30.36,10.0,ESE,4.6,-,N/A,,Overcast,110,2014-01-02 22:15:00
4:35 PM,14.5,8.1,75,30.37,10.0,SE,4.6,-,N/A,,Overcast,140,2014-01-02 22:35:00
4:55 PM,14.0,7.7,76,30.37,5.0,Calm,Calm,-,N/A,Snow,Light Snow,0,2014-01-02 22:55:00
5:15 PM,14.0,7.9,77,30.36,5.0,ESE,4.6,-,N/A,Snow,Light Snow,110,2014-01-02 23:15:00
5:35 PM,13.8,8.2,78,30.36,7.0,ESE,6.9,-,N/A,Snow,Light Snow,110,2014-01-02 23:35:00
5:55 PM,13.6,7.7,77,30.36,10.0,SE,4.6,-,N/A,,Overcast,130,2014-01-02 23:55:00
6:15 PM,13.5,7.7,78,30.36,10.0,SE,5.8,-,N/A,,Overcast,130,2014-01-03 00:15:00
6:35 PM,13.5,7.7,78,30.35,10.0,ESE,5.8,-,N/A,,Overcast,120,2014-01-03 00:35:00
6:55 PM,13.5,7.7,78,30.35,10.0,SE,6.9,-,N/A,,Overcast,130,2014-01-03 00:55:00
7:15 PM,13.3,7.7,78,30.34,10.0,SE,8.1,-,N/A,,Overcast,130,2014-01-03 01:15:00
7:35 PM,13.1,7.7,79,30.34,10.0,SE,8.1,-,N/A,,Overcast,130,2014-01-03 01:35:00
7:55 PM,13.1,7.5,78,30.34,10.0,SE,8.1,-,N/A,,Overcast,140,2014-01-03 01:55:00
8:15 PM,13.3,7.5,78,30.34,10.0,SE,8.1,-,N/A,,Overcast,140,2014-01-03 02:15:00
8:35 PM,13.1,7.5,78,30.32,10.0,SE,11.5,-,N/A,,Overcast,140,2014-01-03 02:35:00
8:55 PM,12.9,7.3,78,30.32,10.0,SSE,10.4,-,N/A,,Overcast,150,2014-01-03 02:55:00
9:15 PM,12.9,7.7,80,30.31,10.0,SSE,8.1,-,N/A,,Overcast,150,2014-01-03 03:15:00
9:35 PM,12.9,7.7,80,30.31,10.0,SSE,11.5,-,N/A,,Overcast,160,2014-01-03 03:35:00
9:55 PM,13.1,7.5,78,30.31,10.0,SSE,9.2,-,N/A,,Overcast,160,2014-01-03 03:55:00
10:15 PM,13.1,7.7,79,30.30,10.0,SSE,10.4,-,N/A,,Overcast,160,2014-01-03 04:15:00
10:35 PM,12.9,7.9,80,30.29,10.0,SSE,9.2,-,N/A,,Overcast,160,2014-01-03 04:35:00
10:55 PM,12.7,7.5,80,30.28,10.0,SSE,12.7,-,N/A,,Overcast,160,2014-01-03 04:55:00
11:15 PM,12.2,7.3,81,30.27,10.0,SSE,11.5,-,N/A,,Overcast,160,2014-01-03 05:15:00
11:35 PM,12.6,7.2,79,30.26,10.0,SSE,12.7,-,N/A,,Overcast,160,2014-01-03 05:35:00
11:55 PM,12.4,7.7,82,30.26,10.0,South,11.5,16.1,N/A,,Overcast,170,2014-01-03 05:55:00